TimePDT,TemperatureF,Dew PointF,Humidity,Sea Level PressureIn,VisibilityMPH,Wind Direction,Wind SpeedMPH,Gust SpeedMPH,PrecipitationIn,Events,Conditions,WindDirDegrees,DateUTC
12:55 AM,43.0,28.9,58,30.20,10.0,NNE,4.6,-,N/A,,Clear,30,2013-06-14 07:55:00
1:55 AM,37.9,28.0,68,30.19,10.0,Calm,Calm,-,N/A,,Clear,0,2013-06-14 08:55:00
2:55 AM,37.0,27.0,67,30.18,10.0,Calm,Calm,-,N/A,,Clear,0,2013-06-14 09:55:00
3:55 AM,32.0,26.1,79,30.20,10.0,Calm,Calm,-,N/A,,Clear,0,2013-06-14 10:55:00
4:47 AM,30.2,24.8,80,30.22,10.0,North,6.9,21.9,N/A,,Squalls,10,2013-06-14 11:47:00
4:55 AM,32.0,26.1,79,30.19,10.0,Calm,Calm,-,N/A,,Clear,0,2013-06-14 11:55:00
5:55 AM,30.0,26.1,85,30.20,10.0,Calm,Calm,-,N/A,,Clear,0,2013-06-14 12:55:00
6:55 AM,39.0,30.0,70,30.19,10.0,Calm,Calm,-,N/A,,Clear,0,2013-06-14 13:55:00
7:55 AM,46.0,33.1,61,30.17,10.0,North,3.5,-,N/A,,Clear,350,2013-06-14 14:55:00
8:55 AM,52.0,30.9,45,30.15,10.0,East,3.5,-,N/A,,Clear,90,2013-06-14 15:55:00
9:55 AM,55.9,32.0,40,30.13,10.0,East,4.6,-,N/A,,Clear,100,2013-06-14 16:55:00
10:55 AM,60.1,28.9,31,30.12,10.0,ESE,4.6,-,N/A,,Clear,120,2013-06-14 17:55:00
11:55 AM,64.0,27.0,25,30.09,10.0,Variable,3.5,-,N/A,,Clear,0,2013-06-14 18:55:00
12:55 PM,66.9,25.0,21,30.06,10.0,Calm,Calm,-,N/A,,Clear,0,2013-06-14 19:55:00
1:55 PM,69.1,21.9,17,30.04,10.0,Calm,Calm,-,N/A,,Clear,0,2013-06-14 20:55:00
2:55 PM,71.1,18.0,13,30.02,10.0,Variable,4.6,-,N/A,,Clear,0,2013-06-14 21:55:00
3:55 PM,72.0,17.1,12,30.01,10.0,Calm,Calm,-,N/A,,Clear,0,2013-06-14 22:55:00
4:55 PM,73.0,18.0,12,29.99,10.0,SE,3.5,-,N/A,,Clear,140,2013-06-14 23:55:00
5:55 PM,73.9,17.1,12,29.96,10.0,North,4.6,-,N/A,,Clear,10,2013-06-15 00:55:00
6:55 PM,73.0,17.1,12,29.94,10.0,NNW,5.8,-,N/A,,Clear,330,2013-06-15 01:55:00
7:55 PM,71.1,19.0,14,29.92,10.0,North,4.6,-,N/A,,Clear,10,2013-06-15 02:55:00
8:55 PM,63.0,21.0,20,29.92,10.0,NE,3.5,-,N/A,,Clear,40,2013-06-15 03:55:00
9:55 PM,57.0,28.0,33,29.94,10.0,East,5.8,-,N/A,,Clear,90,2013-06-15 04:55:00
10:55 PM,50.0,30.9,48,29.96,10.0,Calm,Calm,-,N/A,,Clear,0,2013-06-15 05:55:00
11:55 PM,46.0,30.9,56,29.96,10.0,Calm,Calm,-,N/A,,Clear,0,2013-06-15 06:55:00